Regional Weather Roundup
Issued by NWS Goodland, KS

Home | Current Version | Previous Version | Text Only | Print | Product List | Glossary On
Versions: 1 2 3 4 5 6 7 8 9 10 11 12 13 14 15 16 17 18 19 20 21 22 23 24 25 26 27 28 29 30 31 32 33 34 35 36 37 38 39 40 41 42 43 44 45 46 47 48 49 50
000
ASUS43 KGLD 292310
RWRGLD

GOODLAND FORECAST AREA HOURLY WEATHER ROUNDUP
NATIONAL WEATHER SERVICE DODGE CITY KS
FOR NATIONAL WEATHER SERVICE GOODLAND KS
600 PM CDT WED JUL 29 2015

...OFFICIAL OBSERVATIONS...

CITY           SKY/WX    TMP DP  RH WIND       PRES   REMARKS
GOODLAND KS    SUNNY     80  44  27 SE12G20   30.25F
HILL CITY KS   SUNNY     84  52  33 E10       30.21F
IMPERIAL NEB   SUNNY     85  44  23 S13       30.23F
MCCOOK NEB     SUNNY     84  51  31 SE8       30.21F
AKRON CO       SUNNY     81  45  28 SE18G28   30.27F
BURLINGTON CO  SUNNY     79  44  28 SE8       30.27F
LIMON CO       SUNNY     78  46  32 S15G23    30.30F
$$

...UNOFFICIAL OBSERVATIONS...

CITY           SKY/WX    TMP DP  RH WIND       PRES   REMARKS
COLBY KS       NOT AVBL
HOXIE KS       NOT AVBL
TRIBUNE KS     NOT AVBL
IDALIA CO      NOT AVBL
YUMA CO        NOT AVBL
$$


USA.gov is the U.S. government's official web portal to all federal, state and local government web resources and services.